Yellowknife, Northwest Territories

1:18 AM MDT on March 23, 2017 (GMT -0600)
Yellowknife

Weather History for 71936 - August, 2013

Change the Weather History Date:

Thursday, August 8, 2013

  Actual Average Record
Temperature  
Mean Temperature 60 °F -  
Max Temperature 69 °F 61 °F - ()
Min Temperature 50 °F 47 °F - ()
Degree Days  
Heating Degree Days 6    
Growing Degree Days 10 (Base 50)    
Moisture  
Dew Point 46 °F    
Average Humidity 59    
Maximum Humidity 82    
Minimum Humidity 32    
Precipitation  
Precipitation 0.00 in 0.05 in - ()
Sea Level Pressure  
Sea Level Pressure 30.26 in    
Wind  
Wind Speed 8 mph ()    
Max Wind Speed 14 mph    
Max Gust Speed 21 mph    
Visibility 15.0 miles    
Events      
T = Trace of Precipitation, MM = Missing Value Source: Averaged Metar Reports

Daily Weather History Graph

Daily Weather History Graph

Search for Another Location

Airport or City:

Trip Planner

Search our weather history database for the weather conditions in past years. The results will help you decide how hot, cold, wet, or windy it might be!

Date:

Astronomy

Aug. 08, 2013 Rise Set
Actual Time 5:20 AM MDT 10:03 PM MDT
Civil Twilight 4:16 AM MDT 11:07 PM MDT
Nautical Twilight 2:15 AM MDT 1:10 AM MDT
Astronomical Twilight Sun does not rise Sun does not rise
Moon 8:10 AM MDT (8/8) 9:36 PM MDT (8/8)
Length of Visible Light 18h 51m
Length of Day
16h 43m
Waxing Crescent, 3% of the Moon is Illuminated
Aug 8
Waxing Crescent
Aug 14
First Quarter
Aug 20
Full
Aug 28
Last Quarter
Sep 5
New

Hourly Weather History & Observations

Time (MDT) Temp. Dew Point Humidity Pressure Visibility Wind Dir Wind Speed Gust Speed Precip Events Conditions
12:00 AM 57.2 °F 46.4 °F 67% 30.27 in 15.0 mi SE 8.1 mph - N/A   Partly Cloudy
1:00 AM 55.4 °F 44.6 °F 67% 30.28 in 15.0 mi SE 6.9 mph - N/A   Partly Cloudy
2:00 AM 55.4 °F 44.6 °F 67% 30.28 in 15.0 mi SE 5.8 mph - N/A   Clear
3:00 AM 55.4 °F 46.4 °F 72% 30.28 in 15.0 mi ESE 4.6 mph - N/A   Clear
4:00 AM 53.6 °F 46.4 °F 77% 30.28 in 15.0 mi SE 5.8 mph - N/A   Partly Cloudy
5:00 AM 51.8 °F 46.4 °F 82% 30.28 in 15.0 mi SE 5.8 mph - N/A   Partly Cloudy
6:00 AM 51 °F 46 °F 78% 30.29 in 15 mi ESE 5.8 mph - -   Clear
6:00 AM 51.8 °F 46.4 °F 82% 30.29 in 15.0 mi ESE 5.8 mph - N/A   Partly Cloudy
7:00 AM 55.4 °F 48.2 °F 77% 30.28 in 15.0 mi SE 5.8 mph - N/A   Partly Cloudy
8:00 AM 59.0 °F 48.2 °F 67% 30.28 in 15.0 mi SSE 5.8 mph - N/A   Partly Cloudy
9:00 AM 60.8 °F 51.8 °F 72% 30.28 in 15.0 mi South 8.1 mph - N/A   Partly Cloudy
10:00 AM 62.6 °F 51.8 °F 68% 30.28 in 15.0 mi SSE 11.5 mph - N/A   Partly Cloudy
11:00 AM 64.4 °F 48.2 °F 56% 30.29 in 15.0 mi South 9.2 mph - N/A   Partly Cloudy
12:00 PM 66.2 °F 48.2 °F 52% 30.29 in 15.0 mi South 10.4 mph - N/A   Partly Cloudy
1:00 PM 66.2 °F 44.6 °F 46% 30.29 in 15.0 mi SSE 12.7 mph - N/A   Partly Cloudy
2:00 PM 66.2 °F 42.8 °F 43% 30.28 in 15.0 mi South 11.5 mph - N/A   Partly Cloudy
3:00 PM 68.0 °F 41.0 °F 37% 30.27 in 15.0 mi South 13.8 mph 20.7 mph N/A   Partly Cloudy
4:00 PM 68.0 °F 41.0 °F 37% 30.25 in 15.0 mi SSE 13.8 mph 20.7 mph N/A   Partly Cloudy
5:00 PM 68.0 °F 42.8 °F 40% 30.25 in 15.0 mi South 13.8 mph - N/A   Partly Cloudy
6:00 PM 68 °F 45 °F 32% 30.24 in 15 mi South 13.8 mph - -   Clear
6:00 PM 68.0 °F 44.6 °F 43% 30.24 in 15.0 mi South 13.8 mph - N/A   Partly Cloudy
7:00 PM 66.2 °F 46.4 °F 49% 30.22 in 15.0 mi South 13.8 mph - N/A   Partly Cloudy
8:00 PM 66.2 °F 46.4 °F 49% 30.21 in 15.0 mi SSE 11.5 mph - N/A   Partly Cloudy
9:00 PM 64.4 °F 46.4 °F 52% 30.20 in 15.0 mi SSE 9.2 mph - N/A   Partly Cloudy
10:00 PM 60.8 °F 46.4 °F 59% 30.19 in 15.0 mi SE 8.1 mph - N/A   Partly Cloudy
11:00 PM 59.0 °F 46.4 °F 63% 30.19 in 15.0 mi SSE 6.9 mph - N/A   Partly Cloudy